[[{"header":{"parameterUnit":"m.s-1","parameterCategory":1,"la1":30.2991,"la2":30.254,"lo1":-89.0895,"lo2":-89.0444,"dy":0.0017,"dx":0.0017,"nx":28,"ny":28,"refTime":"2025-11-07T09:00:00:Z","depth":0,"parameterNumber":2,"parameterNumberName":"U-component_of_WINDS"},"data":[0,0,0,0,0,0,0,0,0,0,0,0,0,0,0,0,0,0,0,0,0,0,0,0,0,0,0,0,0,0,0,0,0,0,0,0,0,0,0,0,0,0,0,0,0,0,0,0,0,0,0,0,0,0,0,0,0,0,2.0131,2.0133,0,2.0329,2.0331,2.0333,2.0413,2.0412,2.0412,2.0411,2.0617,2.0622,2.0628,0,0,0,0,0,0,0,0,0,0,0,0,0,1.9824,1.9829,2.0131,2.0133,2.0136,2.0329,2.0331,2.0334,2.0413,2.0412,2.0411,2.0411,2.0615,2.0622,2.0629,0,0,0,0,0,0,0,0,0,0,0,0,0,1.9983,1.9831,2.013,2.0198,2.0206,2.0328,2.0331,2.0335,2.0413,2.0412,2.0411,2.0411,2.0612,2.0621,2.063,2.07,0,0,2.0657,2.0661,0,0,0,0,0,0,0,0,1.9974,1.9994,2.0186,2.0194,2.0203,2.0345,2.0298,2.0457,2.0413,2.0334,2.0411,2.041,2.0527,2.0543,2.0582,2.0709,2.0718,2.0658,2.0663,2.0667,2.067,0,0,0,0,0,0,0,1.9963,1.9986,2.0209,2.0188,2.0199,2.022,2.0241,2.0329,2.0433,2.0341,2.0347,2.037,2.0532,2.0573,2.0587,2.0721,2.0658,2.0665,2.0671,2.0674,2.0917,2.0918,0,0,0,0,0,0,1.994,1.9976,2.0203,2.0215,2.0084,2.0226,2.025,2.03,2.0432,2.0451,2.037,2.0373,2.0558,2.0577,2.0595,2.0686,2.0667,2.0675,2.068,2.0916,2.0917,2.0918,0,0,0,0,0,0,1.9933,1.9959,2.0195,2.0098,2.0129,2.0232,2.0288,2.0305,2.0346,2.0454,2.0473,2.0393,2.0558,2.0582,2.0673,2.0694,2.0679,2.0687,2.0914,2.0916,2.0918,2.0868,0,0,0,0,0,0,1.9924,1.9956,1.9984,2.0098,2.0134,2.0269,2.0289,2.0309,2.0361,2.0366,2.048,2.0499,2.056,2.0659,2.0682,2.0706,2.0694,2.0913,2.0915,2.0917,2.0869,2.0868,2.0868,0,0,0,0,0,1.9913,1.9962,1.9984,2.0011,2.017,2.027,2.0291,2.0359,2.0362,2.0391,2.046,2.0495,2.0688,2.0668,2.0694,2.0721,2.0912,2.0914,2.0917,2.0869,2.0868,2.0868,0,0,0,0,0,0,1.9849,1.9979,2.0005,2.0092,2.0169,2.0283,2.0321,2.0357,2.0435,2.0437,2.0519,2.0545,2.0629,2.0684,2.0659,2.0796,2.0803,2.081,2.0757,2.0758,2.0757,2.0743,2.0702,0,0,0,0,0,1.9845,1.9915,2.0024,2.0091,2.0129,2.0218,2.0264,2.031,2.0394,2.0427,2.0503,2.0583,2.0663,2.0713,2.0791,2.0876,2.0903,2.0908,2.0908,2.0907,2.0913,2.0963,2.0967,2.0926,2.0926,2.0926,0,0,1.9838,1.9918,1.9957,2.0081,2.0146,2.0217,2.0245,2.0319,2.0373,2.0439,2.0529,2.0587,2.0683,2.0771,2.0814,2.082,2.093,2.091,2.0908,2.0916,2.0966,2.097,2.0973,2.0928,2.0928,2.0927,0,0,1.9862,1.9929,1.9992,2.0056,2.0154,2.0213,2.0228,2.0337,2.0378,2.0469,2.052,2.0585,2.0719,2.0786,2.0837,2.0885,2.092,2.0908,2.0906,2.0954,2.0957,2.0961,2.0979,2.0984,2.0913,2.0913,2.0913,0,1.9842,1.995,2.002,2.0092,2.0145,2.0206,2.0272,2.0331,2.045,2.0486,2.049,2.066,2.0729,2.0833,2.0845,2.0884,2.0905,2.0896,2.0951,2.0955,2.0959,2.0977,2.0984,2.0911,2.0912,2.0912,2.0912,0,1.9921,1.9995,2.0035,2.0147,2.0204,2.0272,2.0353,2.0404,2.0444,2.0502,2.0595,2.0679,2.0776,2.0804,2.0845,2.0915,2.0916,2.0935,2.0943,2.096,2.0978,2.0986,2.0908,2.0909,2.091,2.091,0,0,1.9912,2.0061,2.0074,2.0126,2.0238,2.0297,2.0368,2.0462,2.0504,2.0583,2.0646,2.0757,2.0775,2.0833,2.0881,2.0923,2.0957,2.0937,2.094,2.0939,2.1041,2.1027,2.1034,2.098,2.0982,2.0983,2.1033,0,1.9952,2.0081,2.0145,2.0246,2.0317,2.0375,2.0437,2.0513,2.0569,2.0637,2.07,2.0778,2.0795,2.0831,2.0874,2.0943,2.0979,2.094,2.1041,2.1043,2.1016,2.1044,2.103,2.1073,2.1041,2.1042,2.1043,0,2.0017,2.0094,2.0202,2.0305,2.0337,2.0392,2.0483,2.0547,2.0634,2.0672,2.0736,2.0784,2.0862,2.0863,2.0972,2.0944,2.0989,2.1029,2.1032,2.1046,2.1045,2.1059,2.1088,2.1095,2.1055,2.1054,2.1053,0,2.0001,2.0132,2.0214,2.0256,2.0379,2.0416,2.0469,2.0555,2.0607,2.0687,2.0722,2.081,2.0858,2.0926,2.0996,2.099,2.1098,2.1105,2.1134,2.1132,2.1155,2.1153,2.1193,2.1181,2.1181,2.1181,2.1181,0,2.004,2.0104,2.0209,2.0259,2.0332,2.0406,2.0477,2.0535,2.0611,2.0674,2.073,2.0788,2.0877,2.0946,2.1002,2.1084,2.1105,2.1139,2.1154,2.1135,2.1131,2.1167,2.1166,2.1183,2.1182,2.1182,2.1182,0,2.0036,2.0108,2.0201,2.0309,2.0337,2.0387,2.048,2.0531,2.059,2.0669,2.0692,2.0784,2.0869,2.0945,2.1058,2.1096,2.118,2.1197,2.115,2.1158,2.1183,2.118,2.1249,2.1262,2.1239,2.1239,2.1239,0,2.0057,2.0107,2.0219,2.0265,2.0317,2.039,2.0443,2.0517,2.057,2.0673,2.0712,2.0801,2.0876,2.1009,2.1087,2.1174,2.1194,2.1212,2.1208,2.1188,2.1196,2.1193,2.1199,2.1212,2.1212,2.1212,2.1212,0,2.0086,2.0119,2.0193,2.0279,2.034,2.0412,2.0486,2.052,2.0609,2.0666,2.0752,2.081,2.0925,2.1013,2.1108,2.1164,2.1204,2.1212,2.1224,2.1206,2.1178,2.1195,2.1151,2.1211,2.1211,2.1211,2.1211,2.1211,2.0097,2.0144,2.0231,2.0311,2.0373,2.0441,2.0494,2.0559,2.0632,2.073,2.077,2.0858,2.0945,2.1076,2.1132,2.1203,2.1211,2.1227,2.1231,2.1234,2.1232,2.1164,2.1221,2.1221,2.1221,2.1221,2.1221,0,2.0131,2.0188,2.0261,2.0362,2.0425,2.0454,2.0537,2.0588,2.0665,2.0741,2.0813,2.0913,2.0998,2.1082,2.1172,2.1213,2.1234,2.1235,2.1233,2.1246,2.1219,2.1201,2.1217,2.1217,2.1217,2.1217,2.1217,2.1217,2.0156,2.0238,2.0281,2.0395,2.0453,2.0539,2.0584,2.0646,2.0708,2.0816,2.0887,2.094,2.102,2.1116,2.1196,2.1219,2.125,2.1246,2.1274,2.1248,2.1247,2.1247,2.123,2.1252,2.1252,2.1295,2.1295,2.1295]},{"header":{"parameterUnit":"m.s-1","parameterCategory":1,"la1":30.2991,"la2":30.254,"lo1":-89.0895,"lo2":-89.0444,"dy":0.0017,"dx":0.0017,"nx":28,"ny":28,"refTime":"2025-11-07T09:00:00:Z","depth":0,"parameterNumber":3,"parameterNumberName":"V-component_of_WINDS"},"data":[0,0,0,0,0,0,0,0,0,0,0,0,0,0,0,0,0,0,0,0,0,0,0,0,0,0,0,0,0,0,0,0,0,0,0,0,0,0,0,0,0,0,0,0,0,0,0,0,0,0,0,0,0,0,0,0,0,0,0.4032,0.4031,0,0.3941,0.394,0.3939,0.3891,0.3891,0.3891,0.3891,0.3794,0.3792,0.3789,0,0,0,0,0,0,0,0,0,0,0,0,0,0.4162,0.416,0.4032,0.4031,0.403,0.3941,0.394,0.3938,0.3891,0.3891,0.3891,0.3891,0.3795,0.3792,0.3789,0,0,0,0,0,0,0,0,0,0,0,0,0,0.4092,0.4159,0.4032,0.3996,0.3991,0.3941,0.394,0.3938,0.3891,0.3891,0.3891,0.3891,0.3796,0.3792,0.3789,0.3767,0,0,0.3777,0.3775,0,0,0,0,0,0,0,0,0.4096,0.4087,0.4002,0.3998,0.3993,0.3927,0.395,0.388,0.3891,0.3929,0.3891,0.3891,0.3838,0.3831,0.3814,0.3762,0.3758,0.3777,0.3774,0.3773,0.3772,0,0,0,0,0,0,0,0.4101,0.4091,0.3996,0.4001,0.3995,0.3983,0.3972,0.3937,0.3885,0.3926,0.3922,0.3912,0.3836,0.3818,0.3811,0.3757,0.3777,0.3773,0.3771,0.377,0.3681,0.3681,0,0,0,0,0,0,0.4112,0.4095,0.3999,0.3993,0.4045,0.398,0.3969,0.3948,0.3885,0.3876,0.3912,0.391,0.3824,0.3816,0.3808,0.3778,0.3773,0.3769,0.3767,0.3682,0.3681,0.3681,0,0,0,0,0,0,0.4115,0.4104,0.4002,0.4043,0.4029,0.3978,0.3955,0.3947,0.3929,0.3875,0.3866,0.3904,0.3824,0.3813,0.3777,0.3774,0.3768,0.3764,0.3682,0.3681,0.3681,0.3718,0,0,0,0,0,0,0.4119,0.4105,0.4097,0.4043,0.4027,0.3975,0.3955,0.3945,0.3923,0.3919,0.3864,0.3855,0.3823,0.3783,0.3774,0.3768,0.3761,0.3682,0.3682,0.3681,0.3716,0.3719,0.3721,0,0,0,0,0,0.4124,0.411,0.4097,0.4086,0.4016,0.3975,0.3965,0.3929,0.3923,0.3913,0.3879,0.3857,0.3776,0.378,0.3769,0.3762,0.3682,0.3682,0.3681,0.3715,0.3718,0.3721,0,0,0,0,0,0,0.4164,0.4103,0.4087,0.4056,0.4021,0.3967,0.3954,0.3933,0.3899,0.3897,0.3852,0.384,0.3809,0.3782,0.3788,0.3737,0.3726,0.3724,0.3756,0.3758,0.376,0.3767,0.3758,0,0,0,0,0,0.417,0.4142,0.4089,0.4067,0.4051,0.4006,0.3986,0.3962,0.3923,0.3907,0.387,0.3833,0.3798,0.3777,0.3742,0.3712,0.3699,0.3702,0.3704,0.3706,0.3704,0.3686,0.3686,0.3681,0.3681,0.3681,0,0,0.4181,0.4144,0.4129,0.4075,0.4044,0.4016,0.3993,0.3964,0.3942,0.3902,0.3867,0.3838,0.3793,0.376,0.3743,0.3737,0.3703,0.3706,0.3708,0.3705,0.3685,0.3686,0.3687,0.3681,0.3681,0.3681,0,0,0.4186,0.4155,0.4133,0.4104,0.4059,0.4029,0.4024,0.3972,0.3952,0.3916,0.3885,0.3858,0.38,0.3769,0.3746,0.3739,0.3717,0.3729,0.374,0.3722,0.3722,0.3722,0.3719,0.3719,0.3727,0.3727,0.3727,0,0.4205,0.4161,0.4125,0.4097,0.4074,0.4038,0.4014,0.3987,0.3933,0.3917,0.391,0.3837,0.3804,0.3762,0.3761,0.3743,0.3735,0.3735,0.3725,0.3725,0.3725,0.3721,0.372,0.3729,0.3729,0.3729,0.3729,0,0.4186,0.4157,0.4144,0.4094,0.4069,0.4044,0.4002,0.3981,0.3958,0.3929,0.3892,0.3851,0.3808,0.3796,0.3773,0.3751,0.3748,0.3734,0.3722,0.3727,0.3723,0.3722,0.3732,0.3731,0.373,0.373,0,0,0.4215,0.4144,0.414,0.4117,0.4064,0.404,0.4013,0.3971,0.3954,0.3917,0.3892,0.3844,0.3831,0.3804,0.3778,0.3762,0.3758,0.3749,0.3748,0.3752,0.3731,0.3741,0.3741,0.3744,0.3743,0.3743,0.3734,0,0.4212,0.4162,0.4128,0.4092,0.4063,0.4028,0.4004,0.3969,0.394,0.3911,0.3879,0.3846,0.3831,0.3814,0.3797,0.3763,0.3753,0.3763,0.3719,0.3718,0.3731,0.3738,0.375,0.3744,0.3732,0.3732,0.3732,0,0.4202,0.4168,0.4129,0.4079,0.4066,0.4045,0.4004,0.3977,0.3936,0.3916,0.3887,0.3859,0.3828,0.3819,0.3774,0.3781,0.3761,0.3741,0.374,0.3734,0.3725,0.3732,0.3741,0.374,0.3729,0.3729,0.373,0,0.4226,0.417,0.4139,0.412,0.4062,0.4048,0.4022,0.3981,0.3958,0.3922,0.3906,0.3866,0.3844,0.3814,0.3776,0.3773,0.3734,0.3722,0.3716,0.3717,0.3709,0.371,0.3714,0.3697,0.3697,0.3697,0.3697,0,0.4227,0.4204,0.4149,0.413,0.4104,0.4064,0.4038,0.4009,0.3973,0.3947,0.3914,0.389,0.3842,0.3811,0.3782,0.3748,0.3739,0.3721,0.3713,0.3724,0.3726,0.371,0.3709,0.3697,0.3697,0.3697,0.3697,0,0.4249,0.4211,0.4176,0.4123,0.411,0.4092,0.4046,0.4026,0.3996,0.3963,0.3953,0.3905,0.3868,0.3828,0.3776,0.3756,0.3724,0.3713,0.3739,0.3734,0.373,0.3731,0.3723,0.372,0.3706,0.3706,0.3706,0,0.4251,0.4233,0.4179,0.416,0.4136,0.4105,0.4082,0.4042,0.4019,0.397,0.3955,0.3916,0.3882,0.3823,0.3783,0.3743,0.3731,0.3731,0.3725,0.3736,0.373,0.3732,0.3729,0.3733,0.3734,0.3734,0.3734,0,0.426,0.4242,0.4211,0.4172,0.4146,0.4114,0.408,0.4065,0.4018,0.3994,0.3956,0.393,0.3878,0.3838,0.3794,0.3766,0.3742,0.3737,0.3733,0.3743,0.3758,0.375,0.3744,0.3737,0.3736,0.3736,0.3736,0.3736,0.4271,0.4254,0.4213,0.4179,0.4149,0.4119,0.4097,0.4064,0.4032,0.3988,0.3965,0.3927,0.3885,0.3823,0.3796,0.3765,0.3757,0.3752,0.3751,0.375,0.3753,0.3764,0.3756,0.3756,0.3756,0.3756,0.3756,0,0.4278,0.425,0.4219,0.4173,0.4146,0.4127,0.4089,0.4067,0.4034,0.3998,0.3965,0.3921,0.3883,0.384,0.3798,0.3781,0.3769,0.3772,0.3772,0.3766,0.3762,0.3769,0.3782,0.3782,0.3782,0.3782,0.3782,0.3782,0.4278,0.4247,0.4224,0.4178,0.4149,0.4113,0.4093,0.4063,0.4034,0.3987,0.3955,0.3928,0.3888,0.3843,0.3807,0.3795,0.3781,0.3787,0.3772,0.3768,0.3766,0.3764,0.3771,0.3784,0.3784,0.3778,0.3778,0.3778]}]]